Theta_e
297 299 301 300 302 304 305 307 308 311 312 314 311 314 313 315 312 309 313 311 310 308 306 308 307 307 306 306 308 310 309 307 298 289 289 289 288 287 288 288 286 283 283
296 297 297 298 299 301 300 301 305 307 308 307 308 309 309 308 309 306 304 305 304 301 302 303 303 301 302 301 302 305 305 304 299 292 287 286 287 287 286 285 283 283 282
297 298 298 298 297 298 300 300 301 304 305 304 305 302 305 304 303 302 305 302 300 300 297 297 296 296 296 295 293 294 295 296 296 292 288 285 285 285 283 283 282 282 282
293 294 294 295 297 297 298 299 299 300 301 299 301 301 299 298 299 300 300 299 299 296 294 294 291 288 287 289 289 289 289 290 289 288 286 284 283 282 282 282 283 281 281
291 292 292 292 294 295 296 297 296 298 297 295 297 297 297 296 296 297 299 295 294 290 287 285 285 285 285 286 286 286 286 286 285 285 284 284 283 282 282 281 280 281 281
291 291 291 292 292 292 293 293 296 295 294 294 294 293 291 289 290 291 292 289 287 285 284 284 284 284 284 284 285 285 285 285 284 284 284 283 281 281 280 279 279 280 282
287 288 289 290 290 290 291 290 289 290 291 290 288 288 287 287 287 287 287 285 284 283 283 283 283 283 283 283 283 283 284 283 283 282 282 281 280 279 279 278 278 278 279
286 286 286 286 287 288 288 288 287 286 285 285 285 284 284 283 284 284 284 284 283 283 282 282 282 282 283 283 283 283 282 282 282 281 281 280 279 279 278 277 277 276 277
285 286 287 287 286 286 286 286 285 286 285 284 284 283 283 282 283 283 284 283 283 282 282 282 282 282 282 282 282 281 281 281 280 280 279 279 278 278 277 277 278 277 278
286 286 287 287 286 286 286 285 285 285 284 284 283 283 283 283 283 283 283 283 283 282 282 282 281 281 281 281 281 280 280 280 279 279 279 279 278 278 276 276 276 276 277
286 287 287 287 287 286 286 285 285 284 284 283 283 283 283 283 282 282 283 283 283 282 282 282 282 280 280 280 279 279 279 278 279 278 278 278 278 278 277 276 275 275 276
286 287 286 286 286 285 285 285 284 284 283 283 283 283 283 283 282 282 282 282 282 282 282 281 280 280 280 280 280 279 279 278 278 277 278 278 278 278 277 277 276 276 275
286 286 286 286 286 285 285 285 284 283 283 283 283 283 283 283 283 282 282 281 282 281 281 280 280 279 280 280 280 279 278 277 277 277 278 278 278 278 277 277 277 276 276
286 286 286 286 285 285 285 285 284 284 284 283 283 283 283 283 282 282 282 282 281 281 280 280 279 279 278 278 278 278 277 278 278 278 278 278 278 277 276 275 275 275 273
286 286 285 285 285 285 285 284 284 284 284 284 283 283 283 283 283 282 282 282 282 281 281 280 280 280 279 279 280 280 280 279 278 278 277 277 277 276 275 275 273 272 272
285 285 285 285 285 285 285 285 285 285 284 284 285 286 285 284 283 283 283 283 283 282 282 281 281 281 280 280 280 279 279 279 278 277 276 276 276 275 275 275 274 272 272
283 283 283 283 283 283 284 284 284 284 283 283 283 284 284 284 284 283 283 283 283 283 283 283 282 281 280 280 278 278 277 277 277 276 275 274 274 274 273 273 274 273 273
280 281 281 282 282 282 282 281 281 281 282 282 282 282 283 283 284 284 283 282 283 282 282 281 280 280 279 278 278 277 276 275 274 274 273 273 272 272 272 272 273 272 272
280 279 279 279 280 280 280 281 280 280 280 280 281 280 281 281 282 282 280 279 279 278 278 278 277 276 276 276 275 275 274 274 273 272 271 271 270 270 270 270 270 270 269
278 278 278 278 278 278 279 278 278 278 278 277 278 277 278 278 278 277 277 277 277 276 276 275 275 274 273 273 272 272 271 271 270 270 269 269 269 269 269 269 269 269 268
277 277 277 277 277 276 275 275 275 275 276 276 275 275 275 275 275 275 274 273 273 272 272 272 272 272 271 271 271 270 269 268 268 268 268 268 268 267 267 266 266 266 266
275 276 276 276 275 275 275 275 274 274 274 273 273 273 273 273 273 272 272 271 271 270 270 270 270 270 270 269 269 269 269 269 269 268 267 267 267 266 266 265 265 265 265
275 275 275 274 274 274 273 273 272 272 271 271 270 270 270 270 270 269 269 269 269 269 269 269 269 269 269 269 269 268 268 268 268 268 267 267 267 266 266 265 265 265 264
274 273 273 272 272 271 270 269 269 269 269 269 268 268 268 268 268 268 268 268 268 268 268 268 268 268 268 269 268 268 268 268 268 268 267 267 267 267 266 265 265 264 264
271 271 271 270 270 269 268 268 267 267 267 267 267 267 267 267 267 267 267 267 268 268 268 268 268 268 268 268 269 269 269 269 268 268 268 268 268 267 267 266 266 265 265
269 269 268 268 267 267 267 266 266 266 266 266 266 266 266 266 266 266 267 267 267 267 267 267 267 267 268 268 269 269 269 269 269 269 269 269 269 268 268 267 267 266 265
Wind_Speed
18 18 18 14 12 13 13 14 14 16 14 11 11 15 12 11 12 17 20 16 16 16 14 15 14 10 9 6 7 7 5 4 5 3 4 7 9 7 7 7 7 7 7
22 23 23 22 21 21 22 19 16 19 18 15 15 15 16 15 12 12 20 19 18 18 18 17 17 11 10 8 8 8 4 3 4 8 5 5 4 7 6 6 7 9 10
22 24 25 23 24 25 24 23 23 24 23 21 21 21 20 17 19 18 21 20 19 19 17 16 16 10 10 9 10 8 5 4 4 7 6 5 4 4 3 5 7 9 11
19 23 22 22 22 22 23 21 22 23 21 20 21 21 20 20 20 21 21 22 20 17 16 15 13 10 11 11 12 11 10 10 10 9 7 4 2 2 1 3 5 7 10
20 24 22 20 22 23 23 22 21 22 20 19 21 20 19 18 17 18 20 19 20 19 17 14 12 11 10 11 11 11 10 10 9 8 5 3 2 1 1 3 5 9 9
24 24 20 21 22 23 22 21 22 22 21 20 20 20 20 19 16 17 18 20 20 20 19 16 14 13 12 11 11 10 9 8 7 5 3 1 1 2 2 4 6 6 4
21 19 19 18 21 22 23 22 20 21 21 21 20 19 20 19 16 16 17 19 19 17 15 13 13 12 11 12 12 11 9 8 6 5 2 1 0 2 5 5 4 5 6
20 18 18 14 18 20 21 22 19 18 21 21 21 20 21 18 15 15 16 16 16 14 12 10 9 9 9 9 8 8 8 7 6 5 3 2 3 4 5 6 8 10 14
18 19 17 16 17 18 18 17 16 17 19 19 18 18 17 16 13 12 12 13 13 13 10 8 8 7 6 6 5 4 4 4 4 5 4 5 7 7 7 8 6 7 6
16 16 15 15 14 16 15 15 15 16 17 17 18 16 14 14 12 11 10 10 11 10 9 7 6 4 4 3 3 2 2 3 3 5 6 7 8 9 9 10 9 8 8
14 14 14 13 13 12 13 13 12 13 12 14 14 13 11 10 9 8 7 6 6 6 4 4 2 2 2 2 2 3 3 3 6 9 10 10 10 10 9 9 11 10 10
11 12 12 11 10 9 9 10 10 9 9 10 9 9 7 6 5 4 4 3 2 1 1 1 1 2 2 3 3 2 4 7 10 12 12 10 10 10 11 12 14 15 17
8 8 8 8 7 7 6 7 6 6 5 6 5 5 4 3 3 3 3 3 2 1 1 2 2 3 4 5 6 7 9 10 11 11 10 12 13 14 15 15 17 18 19
6 5 5 4 5 5 4 3 3 3 3 3 2 1 1 2 3 3 3 3 4 5 4 5 5 6 6 8 9 11 11 11 11 12 13 15 18 17 15 13 16 13 14
4 4 4 4 4 3 3 2 2 1 0 0 0 1 1 1 2 2 3 5 6 7 8 8 8 7 7 8 9 10 12 13 14 14 14 14 15 14 14 13 13 13 14
7 6 5 5 5 6 6 6 6 4 4 3 3 4 4 5 6 6 6 5 6 8 9 7 7 8 9 10 9 11 13 14 13 14 14 15 15 15 15 15 14 15 17
8 8 8 7 7 7 6 6 6 6 5 5 6 5 6 8 8 8 8 8 8 8 11 10 10 10 10 10 11 12 14 13 16 18 14 14 15 15 14 15 14 16 17
8 8 8 9 9 8 8 8 7 7 5 5 5 6 8 7 8 10 9 8 8 10 12 12 13 12 12 13 13 13 14 13 14 14 14 14 15 13 15 15 13 15 15
9 8 7 7 7 8 8 8 8 8 7 7 6 5 6 7 8 8 6 6 6 6 7 9 10 12 14 15 16 16 17 17 16 17 15 15 14 12 14 13 13 15 16
9 8 7 7 6 6 5 5 5 5 5 5 6 7 9 9 5 5 8 8 9 9 10 11 12 13 14 14 15 15 15 14 12 12 12 13 12 12 13 13 13 14 14
10 9 7 6 5 5 4 3 3 3 3 2 3 3 5 6 6 8 8 8 8 9 10 11 12 12 13 13 14 13 13 13 13 14 14 13 14 14 13 12 13 13 13
8 8 7 6 5 5 4 4 3 3 3 3 3 5 6 5 5 5 6 7 8 9 10 11 12 13 13 14 15 15 16 16 16 15 15 16 15 15 15 14 16 14 13
6 6 6 7 7 7 7 8 7 7 6 6 6 6 7 8 8 8 9 10 11 11 12 12 13 13 13 14 15 15 16 16 16 16 17 16 16 15 14 14 15 15 13
8 8 9 10 10 9 9 9 10 10 9 9 9 10 11 11 11 11 11 12 12 12 13 13 13 13 13 13 13 13 14 14 14 14 14 15 15 15 14 14 14 13 14
11 12 12 12 12 11 11 11 11 11 11 10 10 10 11 11 12 12 12 12 12 12 12 12 12 13 13 13 13 13 13 14 12 12 15 16 17 17 16 16 16 15 14
14 14 14 14 14 13 13 12 12 12 12 12 11 11 11 11 12 12 12 12 13 13 13 13 13 14 13 14 14 13 13 14 15 15 16 17 19 20 18 17 17 16 16
Wind_Direction
78 85 88 80 92 106 111 109 116 128 128 145 155 162 166 184 185 170 163 158 158 145 146 133 126 127 120 119 117 115 127 154 118 127 156 177 184 195 222 240 251 263 275
82 87 88 89 86 90 93 92 99 106 114 119 116 120 127 125 128 142 127 124 128 128 113 115 108 111 109 115 98 95 111 140 135 137 157 170 188 210 229 260 268 274 281
82 83 83 84 83 86 85 88 95 95 99 105 109 109 106 112 122 122 115 121 115 107 110 104 105 117 117 105 102 104 114 132 133 145 137 159 164 199 233 270 276 278 279
76 83 81 80 83 82 85 85 87 92 92 94 99 99 108 114 117 120 118 111 107 104 98 101 102 108 108 110 113 111 106 102 99 106 103 122 119 198 258 274 291 288 297
76 76 74 79 86 87 87 89 88 88 89 92 95 96 95 98 102 109 111 111 109 108 105 109 113 115 115 111 108 98 98 100 99 95 94 100 106 333 261 282 297 308 304
75 76 78 80 81 81 81 83 87 86 85 87 87 93 95 94 101 105 109 113 114 115 116 111 103 97 97 99 100 101 97 89 80 84 79 118 186 236 288 318 321 337 315
72 72 72 74 81 84 88 82 81 93 99 96 96 99 96 97 105 108 112 113 113 111 107 106 104 100 94 86 81 78 80 81 90 104 124 125 332 300 311 315 309 296 283
62 60 65 69 78 84 87 89 92 89 92 96 99 100 97 92 104 112 116 113 110 109 109 108 105 97 93 87 84 82 79 76 76 69 66 5 308 309 309 299 297 295 302
64 65 66 70 72 72 76 83 92 96 96 91 90 92 93 94 102 105 108 109 107 106 103 104 102 95 87 81 73 68 59 45 27 14 358 334 324 305 298 299 302 314 297
69 72 74 73 75 82 85 81 82 89 92 95 94 89 92 93 91 96 103 107 108 107 106 100 98 87 85 67 65 38 11 339 343 334 327 323 312 306 288 280 284 277 289
79 79 74 75 75 78 88 90 89 89 91 94 95 93 89 88 84 89 86 95 109 112 111 105 95 65 33 34 19 1 337 319 324 322 320 323 320 313 308 298 285 277 270
73 75 74 77 80 87 89 91 92 89 92 90 94 96 89 84 79 71 76 77 101 124 128 175 244 271 316 327 343 343 307 312 316 318 316 312 312 310 307 302 294 283 276
64 68 69 69 75 76 77 85 96 103 103 98 89 75 68 48 50 37 48 45 21 330 294 275 264 252 258 273 278 282 291 298 304 302 296 300 304 306 304 302 298 293 289
62 53 48 41 43 53 56 66 94 112 101 97 90 85 36 350 330 329 320 301 287 292 290 286 277 274 280 278 280 279 282 286 288 288 292 297 299 299 299 291 291 292 288
31 21 5 354 355 354 355 329 319 302 244 136 257 239 259 26 7 335 319 310 297 285 280 283 285 289 285 283 282 286 289 292 290 292 292 291 289 293 291 291 286 283 270
0 351 330 319 315 318 321 319 316 306 282 278 279 300 308 319 329 316 299 294 288 287 287 279 282 285 282 285 288 292 289 287 288 290 289 289 290 293 293 290 284 278 284
324 310 305 302 296 293 290 290 295 282 277 256 254 264 268 274 278 274 272 276 280 276 265 278 279 280 286 285 289 285 285 286 291 293 289 286 287 286 287 288 285 284 285
325 313 307 298 289 283 280 276 274 275 275 262 246 260 269 276 288 282 275 274 269 264 266 271 279 286 288 285 284 286 287 289 291 290 285 284 290 289 287 285 288 287 295
335 321 313 303 291 280 272 270 268 268 271 277 291 294 295 300 292 292 305 290 287 286 281 280 282 284 286 287 290 292 295 295 294 295 299 300 293 291 287 290 294 294 292
335 336 328 318 311 300 286 274 272 276 280 289 312 316 323 326 323 314 310 318 313 308 308 307 306 305 306 306 306 305 304 307 308 303 297 295 297 295 294 298 296 293 291
345 345 344 342 338 335 335 331 313 305 306 319 315 347 338 320 320 324 329 334 333 330 324 321 320 319 317 314 312 311 308 306 306 308 309 309 309 305 300 292 290 290 290
357 2 6 10 14 20 26 30 35 39 32 20 353 347 356 2 1 354 350 346 342 338 333 331 330 328 327 325 322 319 317 316 317 314 312 312 311 307 305 303 304 303 300
38 45 49 51 54 57 56 59 60 61 56 49 38 29 25 23 18 12 5 0 356 352 348 345 342 341 337 332 328 324 321 320 317 316 315 315 314 313 311 308 309 308 307
61 71 75 74 73 70 67 63 59 57 53 46 40 34 29 26 22 18 14 11 8 4 360 357 355 352 349 345 341 337 336 333 330 329 327 326 325 324 319 316 313 309 308
69 73 74 71 71 70 69 66 61 56 53 50 46 42 38 34 31 27 25 22 20 18 16 13 9 5 1 357 348 343 341 339 346 348 339 334 332 328 324 320 320 317 311
72 74 74 74 73 71 69 66 62 59 56 52 49 46 44 42 37 32 29 29 25 20 11 3 355 350 347 348 351 354 355 349 348 340 329 331 328 328 325 321 319 313 307